Weather History for Bogota, Colombia

Change the Weather History Date:

Tuesday, March 5, 2013

  Actual Average Record
Temperature  
Mean Temperature 59 °F -  
Max Temperature 67 °F 65 °F 73 °F (1997)
Min Temperature 51 °F 45 °F 39 °F (1997)
Degree Days  
Heating Degree Days 6    
Growing Degree Days 9 (Base 50)    
Moisture  
Dew Point 49 °F    
Average Humidity 63    
Maximum Humidity 82    
Minimum Humidity 37    
Precipitation  
Precipitation 0.00 in 0.10 in - ()
Sea Level Pressure  
Sea Level Pressure 30.34 in    
Wind  
Wind Speed 6 mph ()    
Max Wind Speed 15 mph    
Max Gust Speed -    
Visibility 7.0 miles    
Events      
Averages and records for this station are not official NWS values.
T = Trace of Precipitation, MM = Missing Value Source: Averaged Metar Reports

Daily Weather History Graph

Daily Weather History Graph

Search for Another Location

Airport:

Trip Planner

Search our weather history database for the weather conditions in past years. The results will help you decide how hot, cold, wet, or windy it might be!

Date:

Astronomy

Mar. 05, 2013 Rise Set
Actual Time 6:06 AM COT 6:09 PM COT
Civil Twilight 5:45 AM COT 6:30 PM COT
Nautical Twilight 5:21 AM COT 6:54 PM COT
Astronomical Twilight 4:57 AM COT 7:18 PM COT
Moon 12:24 AM COT (3/5) 12:37 PM COT (3/5)
Length of Visible Light 12h 44m
Length of Day
12h 02m
Last Quarter, 41% of the Moon is Illuminated
Mar 5
Last Quarter
Mar 11
New
Mar 19
First Quarter
Mar 27
Full
Apr 2
Last Quarter

Hourly Weather History & Observations

Time (COT) Temp. Dew Point Humidity Pressure Visibility Wind Dir Wind Speed Gust Speed Precip Events Conditions
12:00 AM 55.4 °F 48.2 °F 77% 30.37 in 6.2 mi NE 4.6 mph - N/A   Mostly Cloudy
1:00 AM 56 °F 49 °F 70%  in 9 mi ENE 2.2 mph - -   Haze
1:00 AM 55.4 °F 48.2 °F 77% 30.35 in 6.2 mi Variable 2.3 mph - N/A   Mostly Cloudy
2:00 AM 55.4 °F 50.0 °F 82% 30.33 in 6.2 mi North 3.5 mph - N/A   Mostly Cloudy
3:00 AM 60.8 °F 50.0 °F 68% 30.32 in 6.2 mi NNW 4.6 mph - N/A   Mostly Cloudy
4:00 AM 54 °F 49 °F 78%  in 9 mi North 4.5 mph - -   Haze
4:00 AM 55.4 °F 50.0 °F 82% 30.31 in 6.2 mi North 4.6 mph - N/A   Mostly Cloudy
5:00 AM 55.4 °F 48.2 °F 77% 30.31 in 6.2 mi NW 3.5 mph - N/A   Mostly Cloudy
5:30 AM 55.4 °F 48.2 °F 77% 30.32 in 6.2 mi NE 4.6 mph - N/A   Mostly Cloudy
6:00 AM 55.4 °F 48.2 °F 77% 30.33 in 6.2 mi NE 4.6 mph - N/A   Mostly Cloudy
7:00 AM 57 °F 47 °F 61%  in 10 mi ENE 6.7 mph - -   Haze
7:00 AM 57.2 °F 48.2 °F 72% 30.36 in 6.2 mi ENE 5.8 mph - N/A   Mostly Cloudy
8:00 AM 59.0 °F 50.0 °F 72% 30.38 in 6.2 mi East 5.8 mph - N/A   Scattered Clouds
9:00 AM 62.6 °F 50.0 °F 63% 30.39 in 6.2 mi ENE 9.2 mph - N/A   Scattered Clouds
10:00 AM 65 °F 49 °F 45%  in 11 mi ESE 11.2 mph - -   Haze
10:00 AM 64.4 °F 48.2 °F 56% 30.40 in 6.2 mi ESE 11.5 mph - N/A   Mostly Cloudy
11:00 AM 66.2 °F 48.2 °F 52% 30.39 in 6.2 mi East 13.8 mph - N/A   Mostly Cloudy
12:00 PM 66.2 °F 46.4 °F 49% 30.37 in 6.2 mi ESE 15.0 mph - N/A   Mostly Cloudy
1:00 PM 66 °F 46 °F 37%  in 11 mi ESE 11.2 mph - -   Haze
1:00 PM 66.2 °F 46.4 °F 49% 30.33 in 6.2 mi ESE 11.5 mph - N/A   Mostly Cloudy
2:00 PM 66.2 °F 46.4 °F 49% 30.31 in 6.2 mi SE 11.5 mph - N/A   Scattered Clouds
3:00 PM 68.0 °F 46.4 °F 46% 30.27 in 6.2 mi ESE 8.1 mph - N/A   Mostly Cloudy
4:00 PM 67 °F 47 °F 37%  in 11 mi SE 8.9 mph - -   Haze
4:00 PM 68.0 °F 46.4 °F 46% 30.25 in 6.2 mi SE 9.2 mph - N/A   Scattered Clouds
5:00 PM 66.2 °F 46.4 °F 49% 30.25 in 6.2 mi East 11.5 mph - N/A   Mostly Cloudy
6:00 PM 62.6 °F 53.6 °F 72% 30.27 in 6.2 mi West 8.1 mph - N/A   Mostly Cloudy
7:00 PM 60 °F 52 °F 67%  in 7 mi WNW 11.2 mph - -   Haze
7:00 PM 59.0 °F 51.8 °F 77% 30.32 in 6.2 mi WNW 11.5 mph - N/A   Mostly Cloudy
8:00 PM 60.8 °F 48.2 °F 63% 30.35 in 6.2 mi ENE 5.8 mph - N/A   Mostly Cloudy
9:00 PM 60.8 °F 48.2 °F 63% 30.37 in 6.2 mi ENE 6.9 mph - N/A   Mostly Cloudy
10:00 PM 60 °F 48 °F 55%  in 7 mi ENE 8.9 mph - -   Haze
10:00 PM 59.0 °F 48.2 °F 67% 30.38 in 6.2 mi ENE 8.1 mph - N/A   Mostly Cloudy
11:00 PM 60 °F 48 °F 55%  in 7 mi ENE 8.9 mph - -   Haze
11:00 PM 59.0 °F 50.0 °F 72% 30.39 in 6.2 mi NNE 6.9 mph - N/A   Mostly Cloudy